Regional Weather Roundup
Issued by NWS

Home | Current Version | Previous Version | Text Only | Print | Product List | Glossary On
Versions: 1 2 3 4 5 6 7 8 9 10 11 12 13 14 15 16 17 18 19 20 21 22 23 24 25 26 27 28 29 30 31 32 33 34 35 36 37 38 39 40 41 42 43 44 45 46 47 48 49 50
128
ASUS43 KOAX 241702
RWRNE

WEATHER ROUNDUP FOR NEBRASKA
NATIONAL WEATHER SERVICE OMAHA NE
1200 PM CDT TUE MAY 24 2016

NOTES: SATELLITE DATA IS BEING USED TO AUGMENT CLOUD COVER ABOVE
       12000 FEET.
       "FAIR" INDICATES FEW OR NO CLOUDS BELOW 12,000 FEET WITH NO
       SIGNIFICANT WEATHER AND/OR OBSTRUCTIONS TO VISIBILITY.

  * THESE STATIONS DO NOT REPORT WEATHER SUCH AS RAIN...SNOW OR FOG.

NEZ001>004-019>022-054>056-241800-
NEBRASKA PANHANDLE

CITY           SKY/WX    TMP DP  RH WIND       PRES   REMARKS
SCOTTSBLUFF    MOSUNNY   67  47  48 SE9       29.94S
ALLIANCE       MOSUNNY   69  41  36 SE12      29.93S
CHADRON        PTSUNNY   68  42  38 E5        29.91F
SIDNEY         SUNNY     69  45  41 S12G20    29.96S
$$

NEZ057>060-069>072-079>082-241800-
SOUTHWEST NEBRASKA

CITY           SKY/WX    TMP DP  RH WIND       PRES   REMARKS
NORTH PLATTE   SUNNY     75  56  51 S9        29.91F
IMPERIAL       SUNNY     71  57  61 SE16      29.93S
LEXINGTON      SUNNY     72  58  60 S8G16     29.93R
MCCOOK         SUNNY     72  57  59 SE14      29.93S
$$

NEZ005>010-023>029-035>040-094-241800-
NORTH CENTRAL NEBRASKA

CITY           SKY/WX    TMP DP  RH WIND       PRES   REMARKS
VALENTINE      SUNNY     75  41  29 VRB3      29.91S
AINSWORTH      SUNNY     74  43  32 CALM      29.91S
BROKEN BOW     SUNNY     75  60  59 S15G25    29.91F
ORD            SUNNY     76  61  59 SW10      29.89S
$$

NEZ041-046>049-061>064-073>077-083>087-241800-
SOUTH CENTRAL NEBRASKA

CITY           SKY/WX    TMP DP  RH WIND       PRES   REMARKS
GRAND ISLAND   SUNNY     76  57  51 S7        29.91R
HASTINGS       SUNNY     71  58  63 SW13G20   29.91R
KEARNEY *      SUNNY     73  55  53 S15       29.92S
YORK           MOSUNNY   72  63  73 CALM      29.91S
$$

NEZ011>018-030>034-042>045-241800-
NORTHEAST NEBRASKA

CITY           SKY/WX    TMP DP  RH WIND       PRES   REMARKS
NORFOLK        SUNNY     76  64  66 S6        29.88R
ALBION         SUNNY     77  59  54 SW9       29.90R
BLAIR          CLOUDY    71  64  77 CALM      29.90S
FREMONT        PTSUNNY   72  63  73 SE6       29.90S
TEKAMAH        CLOUDY    72  63  73 SW7       29.89R
$$

NEZ050>053-065>068-078-088>093-241800-
SOUTHEAST NEBRASKA

CITY           SKY/WX    TMP DP  RH WIND       PRES   REMARKS
LINCOLN        MOSUNNY   73  60  63 N8        29.90R
OMAHA EPPLEY   CLOUDY    75  63  66 N7        29.89R
FALLS CITY     CLOUDY    72  58  61 S12G20    29.81F
PLATTSMOUTH    CLOUDY    73  63  71 CALM      29.89S
$$

NEZ044-045-051>053-067-241800-
OMAHA AREA

CITY           SKY/WX    TMP DP  RH WIND       PRES   REMARKS
OMAHA EPPLEY   CLOUDY    75  63  66 N7        29.89R
BLAIR          CLOUDY    71  64  77 CALM      29.90S
FREMONT        PTSUNNY   72  63  73 SE6       29.90S
PLATTSMOUTH    CLOUDY    73  63  71 CALM      29.89S
$$




USA.gov is the U.S. government's official web portal to all federal, state and local government web resources and services.